Dauntless Aviation
Airports Europe Italy
LIMC
MXP

Malpensa

Milano, ITALY

Airport Info
Suggest Updated Information for this Airport

Location

Latitude / Longitude: 45°37'50"N / 8°43'41"E
  45°37.836'N / 8°43.686'E
  45.6306 / 8.7281

Nearby radio navigation aids

MAL MALPENSA VOR/DME on field.
MAL MALPENSA NDB. 346.3° 5.3nm from MAL to field.

Runway Information

Runway 17L/35R

Dimensions: 12861 x 197 ft.
Surface: ASP
 
Runway 17L
Runway 35R
Latitude: 45.642058 45.61575
Longitude: 8.730197 8.737497
Elevation: 745 ft. 745 ft.
Runway true heading: 168.2 348.2
 

Runway 17R/35L

Dimensions: 12861 x 197 ft.
Surface: ASP
 
Runway 17R
Runway 35L
Latitude: 45.645461 45.614797
Longitude: 8.718725 8.727208
Elevation: 764 ft. 764 ft.
Runway true heading: 168.2 348.2
 

Instrument Procedures

  Aircraft Parking Docking Chart : T2
  Aerodrome Ground Movement Chart
  Aerodrome Ground Movement Chart: Aircraft Code F
  Aerodrome Chart
  Aircraft Parking Docking Chart: T1

STARs (Standard Terminal Arrivals)

  Arrival Transition and amp; STAR P-RNAV
  Arrival Transition and amp; STAR

IAPs (Instrument Approach Procedures)

  Hotspot MAP (Not for Navigation)
  Low Visibility Procedures Chart
  Transition SEGMENTS to ENROUTE Rwy 35L
  Transition SEGMENTS to ENROUTE Rwy 35R
  Transition SEGMENTS to ENROUTE Rwy 17L/R
  Aerodrome Information (Textual)
  Aerodrome Obstacle Chart Type A Rwy 35R/17L
  Aerodrome Obstacle Chart Type A Rwy 35L/17R
  Precision Approach Terrain Chart Rwy 35R
  Precision Approach Terrain Chart Rwy 35L
  VOR Rwy 35R
  L Rwy 35R
  ILS Z Rwy 17L
  ILS Y Rwy 17L
  LOC Rwy 17L
  Visual Approach Chart
  VOR Rwy 17L
  ILS X Rwy 35L
  VOR Rwy 35L
  RNAV (GNSS) Rwy 35L
  RNAV (GNSS) Rwy 35R
  ILS Z Rwy 35L
  ILS Z Rwy 35R
  ILS Y Rwy 35L
  ILS Y Rwy 35R

Departure Procedures

  Omnidirectional Departure Area Rwy 35L
  Initial Climb Procedure and SID Rwy 35R
  Omnidirectional Departure Area Rwy 35R
  Initial Climb Procedures and SID Rwy 17L/R
  Initial Climb Procedures and SID P-RNAV1 Rwy 35L
  Initial Climb Procedure and SID Rwy 35L
  Initial Climb Procedures and SID P-RNAV Rwy 35R
Satellite photo at:
Airport distance calculator
From:
Weather Reports

METAR

LIMC

LIMC 281020Z 01009KT 9999 SCT044 SCT060 24/19 Q1004 NOSIG
LIMN
7.3nm S
LIMN 280955Z 34010KT 9999 SCT020 23/18 Q1003 RMK BKN SCT080 VIS MIN 9999 BLU
LSZA
23.5nm N
LSZA 281020Z 35004KT 300V040 9999 VCSH FEW010 SCT040 BKN130 19/17 Q1004 NOSIG
LIML
24.7nm E
LIML 281020Z 14003KT 090V200 9999 SCT025 SCT060 26/18 Q1002 NOSIG
LSZL
32.8nm N
LSZL 280950Z 06005KT 020V090 8000 RA FEW010 BKN039 BKN048 17/16 Q1005 RMK BLU

TAF

LIMC
TAF LIMC 280500Z 2806/2912 13007KT 9999 BKN040 TEMPO 2806/2902 VRB15G25KT 3000 TSRA BKN010CB TEMPO 2902/2906 3500 BR TEMPO 2909/2912 4000 TSRA
LIMN
7.3nm S
TAF LIMN 280800Z 2809/2818 02010KT 9999 SCT015 BKN030 TEMPO 2809/2818 08015KT 5000 TSRA SCT010CB BKN020
LSZA
23.5nm N
TAF LSZA 280825Z 2809/2818 VRB03KT 9999 FEW007 SCT040TCU BKN050 TEMPO 2809/2818 SHRA PROB40 TEMPO 2812/2818 35015G25KT 3000 TSRA SCT035CB
LIML
24.7nm E
TAF LIML 280500Z 2806/2906 08008KT 9999 BKN050 TEMPO 2806/2902 VRB15G25KT 3000 TSRA BKN010CB TEMPO 2902/2906 3500 BR
LSZL
32.8nm N
TAF LSZL 280525Z 2806/2815 VRB03KT 9999 FEW009 BKN045 OVC070 TEMPO 2806/2809 25015G30KT 2000 TSRA SCT008 SCT025CB BKN050 PROB40 TEMPO 2809/2815 4500 TSRA SCT035CB
Safelog

 

Dauntless Aviation

© 2007-2017 Dauntless Aviation, all rights reserved
Information provided via PilotNav comes from a variety of official and unofficial data sources. As errors are possible, do not use PilotNav for primary flight planning purposes. Verify any information that you receive via PilotNav with current and canonical charts and other official documents. The material in this database is subject to database copyrights held by Dauntless Aviation and may not be copied without the express permission of Dauntless Aviation - licenses for use of part of all of this data are available for purchase; enquire via the Dauntless Aviation helpdesk. A number of mechanisms and markers exist in the database to protect against and identify infringement / copyright. Automated queries against this website are stictly prohibited, and all activity is logged and analyzed.